When you browse on this site, cookies collect data to enhance your experience and personalize the content and advertising you see.
Visit our Privacy Policy to learn more. By continuing to use the site, you agree to this use of cookies and data.
  • In Czech Republic
  • List of Countries
  • For 7 days
  • Water Temperature
  • Weather Map
  • Weather Widgets
  • user-avatar
    Login

    Hourly Weather Bansko

    Today, 2 June, Tuesday

    Time Temperature Precipitation Wind Pressure Humidity
    00:00 +10°C° 0 mm 1 mps 717 mmHg 89%
    01:00 +9°C° 0 mm 1 mps 717 mmHg 89%
    02:00 +9°C° 0 mm 1 mps 716 mmHg 89%
    03:00 +9°C° 0 mm 1 mps 716 mmHg 90%
    04:00 +9°C° 0 mm 1 mps 716 mmHg 91%
    05:00 +9°C° 0 mm 1 mps 716 mmHg 92%
    06:00 +11°C° 0 mm 1 mps 716 mmHg 87%
    07:00 +12°C° 0 mm 1 mps 716 mmHg 82%
    08:00 +14°C° 0 mm 2 mps 716 mmHg 75%
    09:00 +16°C° 0.1 mm 2 mps 716 mmHg 70%
    10:00 +17°C° 0.1 mm 2 mps 716 mmHg 65%
    11:00 +18°C° 0.1 mm 2 mps 716 mmHg 60%
    12:00 +19°C° 0.3 mm 3 mps 715 mmHg 60%
    13:00 +19°C° 0.3 mm 3 mps 715 mmHg 60%
    14:00 +20°C° 0.3 mm 3 mps 715 mmHg 60%
    15:00 +19°C° 0.2 mm 3 mps 714 mmHg 59%
    16:00 +19°C° 0.2 mm 3 mps 714 mmHg 58%
    17:00 +19°C° 0.2 mm 3 mps 714 mmHg 57%
    18:00 +17°C° 0.1 mm 2 mps 714 mmHg 67%
    19:00 +15°C° 0.1 mm 2 mps 714 mmHg 76%
    20:00 +13°C° 0.1 mm 1 mps 714 mmHg 85%
    21:00 +12°C° 0 mm 1 mps 714 mmHg 85%
    22:00 +11°C° 0 mm 1 mps 714 mmHg 86%
    23:00 +11°C° 0 mm 1 mps 714 mmHg 86%

    Tomorrow, 3 June, Wednesday

    Time Temperature Precipitation Wind Pressure Humidity
    00:00 +10°C° 0 mm 1 mps 714 mmHg 86%
    01:00 +10°C° 0 mm 1 mps 714 mmHg 87%
    02:00 +9°C° 0 mm 1 mps 714 mmHg 87%
    03:00 +9°C° 0 mm 1 mps 714 mmHg 86%
    04:00 +8°C° 0 mm 1 mps 714 mmHg 85%
    05:00 +8°C° 0 mm 1 mps 714 mmHg 84%
    06:00 +10°C° 0 mm 1 mps 714 mmHg 80%
    07:00 +12°C° 0 mm 1 mps 714 mmHg 75%
    08:00 +14°C° 0 mm 1 mps 715 mmHg 70%
    09:00 +16°C° 0 mm 1 mps 715 mmHg 64%
    10:00 +18°C° 0 mm 1 mps 715 mmHg 59%
    11:00 +19°C° 0 mm 2 mps 715 mmHg 53%
    12:00 +19°C° 0.2 mm 2 mps 715 mmHg 52%
    13:00 +20°C° 0.2 mm 2 mps 714 mmHg 50%
    14:00 +20°C° 0.2 mm 2 mps 714 mmHg 49%
    15:00 +20°C° 0.1 mm 2 mps 714 mmHg 49%
    16:00 +20°C° 0.1 mm 2 mps 714 mmHg 49%
    17:00 +20°C° 0.1 mm 2 mps 714 mmHg 50%
    18:00 +18°C° 0 mm 2 mps 714 mmHg 57%
    19:00 +16°C° 0 mm 1 mps 714 mmHg 64%
    20:00 +14°C° 0 mm 1 mps 714 mmHg 71%
    21:00 +14°C° 0 mm 1 mps 714 mmHg 71%
    22:00 +13°C° 0 mm 1 mps 714 mmHg 71%
    23:00 +13°C° 0 mm 1 mps 715 mmHg 71%

    Day after tomorrow, 4 June, Thursday

    Time Temperature Precipitation Wind Pressure Humidity
    00:00 +12°C° 0 mm 1 mps 715 mmHg 73%
    01:00 +12°C° 0 mm 1 mps 715 mmHg 75%
    02:00 +12°C° 0 mm 1 mps 714 mmHg 76%
    03:00 +12°C° 0 mm 1 mps 714 mmHg 77%
    04:00 +12°C° 0 mm 1 mps 715 mmHg 78%
    05:00 +11°C° 0 mm 1 mps 715 mmHg 79%
    06:00 +14°C° 0 mm 1 mps 715 mmHg 73%
    07:00 +16°C° 0 mm 1 mps 715 mmHg 67%
    08:00 +20°C° 0 mm 1 mps 715 mmHg 61%
    09:00 +20°C° 0 mm 2 mps 716 mmHg 57%
    10:00 +21°C° 0 mm 2 mps 716 mmHg 53%
    11:00 +24°C° 0 mm 3 mps 716 mmHg 48%
    12:00 +24°C° 0 mm 3 mps 716 mmHg 48%
    13:00 +25°C° 0 mm 3 mps 716 mmHg 48%
    14:00 +25°C° 0 mm 4 mps 716 mmHg 47%
    15:00 +25°C° 0.1 mm 3 mps 716 mmHg 51%
    16:00 +24°C° 0.1 mm 3 mps 716 mmHg 54%
    17:00 +24°C° 0.1 mm 3 mps 716 mmHg 58%
    18:00 +21°C° 0 mm 3 mps 716 mmHg 65%
    19:00 +19°C° 0 mm 2 mps 716 mmHg 72%
    20:00 +17°C° 0 mm 2 mps 716 mmHg 79%
    21:00 +17°C° 0 mm 2 mps 716 mmHg 79%
    22:00 +16°C° 0 mm 2 mps 716 mmHg 80%
    23:00 +15°C° 0 mm 2 mps 717 mmHg 80%

    5 June, Friday

    Time Temperature Precipitation Wind Pressure Humidity
    00:00 +15°C° 0 mm 2 mps 717 mmHg 82%
    01:00 +15°C° 0 mm 2 mps 717 mmHg 83%
    02:00 +15°C° 0 mm 2 mps 717 mmHg 84%
    03:00 +14°C° 0 mm 2 mps 716 mmHg 85%
    04:00 +14°C° 0 mm 2 mps 716 mmHg 85%
    05:00 +14°C° 0 mm 2 mps 716 mmHg 85%
    06:00 +16°C° 0 mm 2 mps 716 mmHg 79%
    07:00 +18°C° 0 mm 2 mps 716 mmHg 72%
    08:00 +20°C° 0 mm 2 mps 716 mmHg 66%
    09:00 +22°C° 0 mm 3 mps 717 mmHg 61%
    10:00 +24°C° 0 mm 3 mps 717 mmHg 56%
    11:00 +25°C° 0 mm 4 mps 717 mmHg 51%
    12:00 +26°C° 0 mm 4 mps 716 mmHg 52%
    13:00 +26°C° 0 mm 4 mps 716 mmHg 52%
    14:00 +26°C° 0 mm 4 mps 715 mmHg 52%
    15:00 +25°C° 0 mm 4 mps 715 mmHg 57%
    16:00 +23°C° 0 mm 4 mps 715 mmHg 62%
    17:00 +22°C° 0 mm 4 mps 715 mmHg 67%
    18:00 +21°C° 0.2 mm 3 mps 715 mmHg 74%
    19:00 +20°C° 0.2 mm 2 mps 715 mmHg 80%
    20:00 +18°C° 0.2 mm 2 mps 715 mmHg 87%
    21:00 +18°C° 0 mm 2 mps 715 mmHg 88%
    22:00 +17°C° 0 mm 2 mps 715 mmHg 89%
    23:00 +16°C° 0 mm 2 mps 716 mmHg 91%

    6 June, Saturday

    Time Temperature Precipitation Wind Pressure Humidity
    00:00 +16°C° 0 mm 2 mps 715 mmHg 89%
    01:00 +16°C° 0 mm 2 mps 715 mmHg 88%
    02:00 +16°C° 0 mm 2 mps 715 mmHg 86%
    03:00 +15°C° 0 mm 1 mps 715 mmHg 85%
    04:00 +15°C° 0 mm 1 mps 715 mmHg 85%
    05:00 +15°C° 0 mm 1 mps 715 mmHg 84%
    06:00 +16°C° 0.1 mm 1 mps 715 mmHg 83%
    07:00 +18°C° 0.1 mm 1 mps 715 mmHg 82%
    08:00 +19°C° 0.1 mm 1 mps 716 mmHg 82%
    09:00 +20°C° 0.2 mm 1 mps 716 mmHg 75%
    10:00 +21°C° 0.2 mm 1 mps 716 mmHg 69%
    11:00 +21°C° 0.2 mm 2 mps 717 mmHg 63%
    12:00 +21°C° 0.6 mm 2 mps 716 mmHg 67%
    13:00 +20°C° 0.6 mm 2 mps 716 mmHg 72%
    14:00 +19°C° 0.6 mm 2 mps 716 mmHg 76%
    15:00 +20°C° 0.2 mm 2 mps 716 mmHg 73%
    16:00 +21°C° 0.2 mm 2 mps 716 mmHg 70%
    17:00 +22°C° 0.2 mm 1 mps 716 mmHg 67%
    18:00 +21°C° 0.1 mm 1 mps 716 mmHg 74%
    19:00 +19°C° 0.1 mm 1 mps 716 mmHg 81%
    20:00 +15°C° 0.1 mm 0 mps 716 mmHg 88%
    21:00 +16°C° 0 mm 1 mps 716 mmHg 88%
    22:00 +15°C° 0 mm 1 mps 716 mmHg 89%
    23:00 +15°C° 0 mm 1 mps 717 mmHg 89%

    7 June, Sunday

    Time Temperature Precipitation Wind Pressure Humidity
    00:00 +15°C° 0 mm 1 mps 717 mmHg 89%
    01:00 +14°C° 0 mm 1 mps 717 mmHg 89%
    02:00 +13°C° 0 mm 0 mps 717 mmHg 89%
    03:00 +13°C° 0 mm 0 mps 717 mmHg 89%
    04:00 +13°C° 0 mm 0 mps 717 mmHg 90%
    05:00 +13°C° 0 mm 0 mps 717 mmHg 90%
    06:00 +15°C° 0 mm 0 mps 717 mmHg 85%
    07:00 +19°C° 0 mm 1 mps 718 mmHg 80%
    08:00 +21°C° 0 mm 1 mps 718 mmHg 75%
    09:00 +23°C° 0 mm 1 mps 718 mmHg 68%
    10:00 +24°C° 0 mm 1 mps 718 mmHg 62%
    11:00 +26°C° 0 mm 1 mps 719 mmHg 55%
    12:00 +27°C° 0.1 mm 1 mps 718 mmHg 54%
    13:00 +27°C° 0.1 mm 2 mps 718 mmHg 52%
    14:00 +28°C° 0.1 mm 2 mps 718 mmHg 51%
    15:00 +27°C° 0.2 mm 2 mps 718 mmHg 54%
    16:00 +27°C° 0.2 mm 2 mps 717 mmHg 58%
    17:00 +26°C° 0.2 mm 2 mps 717 mmHg 61%
    18:00 +25°C° 0.1 mm 2 mps 717 mmHg 69%
    19:00 +23°C° 0.1 mm 1 mps 717 mmHg 77%
    20:00 +21°C° 0.1 mm 1 mps 717 mmHg 84%
    21:00 +20°C° 0 mm 1 mps 717 mmHg 85%
    22:00 +20°C° 0 mm 1 mps 718 mmHg 85%
    23:00 +19°C° 0 mm 1 mps 718 mmHg 85%
    Show more